Regional Weather Roundup
Issued by NWS

Home | Current Version | Previous Version | Text Only | Print | Product List | Glossary On
Versions: 1 2 3 4 5 6 7 8 9 10 11 12 13 14 15 16 17 18 19 20 21 22 23 24 25 26 27 28 29 30 31 32 33 34 35 36 37 38 39 40 41 42 43 44 45 46 47 48 49 50
000
ASUS43 KDTX 181101
RWRMI
MICHIGAN HOURLY REGIONAL WEATHER ROUNDUP
NATIONAL WEATHER SERVICE DETROIT/PONTIAC MI
600 AM EST MON DEC 18 2017

NOTE: "FAIR" INDICATES FEW OR NO CLOUDS BELOW 12,000 FEET WITH NO
SIGNIFICANT WEATHER AND/OR OBSTRUCTION TO VISIBILITY.

MIZ047>049-052>055-059>063-066>070-074>076-081>083-181200-
SOUTHEAST LOWER MICHIGAN

CITY           SKY/WX    TMP DP  RH WIND       PRES   REMARKS
ADRIAN         CLOUDY    36  34  92 SW9       29.97F WCI  29
ALMA           LGT RAIN  32  32 100 CALM      29.91S
ANN ARBOR      CLOUDY    36  35  96 S7        29.95S FOG     WCI  30
BAD AXE        LGT SNOW  29  28  96 SW3       29.90F
CARO           LGT SNOW  31  30  98 CALM      29.91S
DETROIT CITY   CLOUDY    37  34  89 SW7       29.95F WCI  32
DETROIT        CLOUDY    38  34  85 SW12      29.97S WCI  30
FLINT          CLOUDY    36  33  89 S6        29.93S WCI  31
GROSSE ILE     CLOUDY    36  34  92 S7        29.96S WCI  31
HILLSDALE      DRIZZLE   36  34  93 SW9       29.93F WCI  29
HOWELL         CLOUDY    37  36  95 SW6       29.92F WCI  33

CITY           SKY/WX    TMP DP  RH WIND       PRES   REMARKS
JACKSON        CLOUDY    38  35  89 SW12      29.94S FOG     WCI  30
LAMBERTVILLE   CLOUDY    38  34  85 SW6       29.98S WCI  34
LANSING        CLOUDY    37  36  96 SW10      29.92F WCI  30
LAPEER         CLOUDY    37  35  92 SW7       29.91F WCI  32
MASON          CLOUDY    38  34  84 SW5       29.93S WCI  35
MONROE         CLOUDY    38  33  84 SW6       29.97F WCI  33
MT. CLEMENS    CLOUDY    36  36 100 SW7       29.92F WCI  30
PONTIAC        CLOUDY    33  33 100 SW3       29.92S FOG
PORT HOPE        N/A     29  27  92 CALM      29.88F
PORT HURON     CLOUDY    34  32  93 SW3       29.94S FOG
TRI CITIES     LGT SNOW  30  30 100 S3        29.92S FOG
MIDLAND        LGT SNOW  29  28  95 CALM      29.90F
TROY           CLOUDY    36  35  96 SW7       29.95F FOG     WCI  30
SAGINAW HB     LGT SNOW  32  32 100 SW5       29.91S WCI  27
$$
MIZ043>046-050>051-056>058-064>065-071>073-077>080-181200-
SOUTHWEST LOWER MICHIGAN

CITY           SKY/WX    TMP DP  RH WIND       PRES   REMARKS
BATTLE CREEK   LGT RAIN  37  36  96 SW10      29.93S FOG     WCI  30
BENTON HARBOR  CLOUDY    39  37  92 S9        29.93S FOG     WCI  33
BIG RAPIDS     LGT SNOW  28  27  96 CALM      29.88S
COLDWATER      CLOUDY    38  37  99 SW8       29.94F FOG     WCI  32
HOLLAND        CLOUDY    39  37  92 SW12      29.90F FOG     WCI  32
GRAND RAPIDS   DRIZZLE   36  35  96 S7        29.90F FOG     WCI  30
IONIA          CLOUDY    36  35  96 SW5       29.90F FOG     WCI  32
KALAMAZOO      CLOUDY    38  36  92 SW8       29.93F FOG     WCI  32
LUDINGTON      MIX PCPN  30  29  96 CALM      29.88S
MARSHALL       RAIN      37  37  98 SW8       29.93F WCI  31
MOUNT PLEASANT LGT SNOW  29  28  94 CALM      29.89F
MUSKEGON       LGT RAIN  37  34  89 CALM      29.90F VSB 1/2
SOUTH HAVEN    RAIN      40  38  93 SW9       29.92S WCI  34
$$
MIZ016>042-181200-
NORTHERN LOWER MICHIGAN

CITY           SKY/WX    TMP DP  RH WIND       PRES   REMARKS
ALPENA         CLOUDY    28  27  96 SW5       29.88F FOG     WCI  23
BEAVER ISLAND  CLOUDY    35  33  93 W3        29.84F FOG
BELLAIRE       CLOUDY    28  28 100 S3        29.88F FOG
CADILLAC       FOG       27  26  99 CALM      29.85F VSB 1/4
CHARLEVOIX     CLOUDY    29  29 100 S7        29.89S FOG     WCI  22
FRANKFORT      FOG       32  32 100 SE5       29.87F VSB 1   WCI  27
GAYLORD        FOG       25  23  92 S3        29.84F VSB 1/4
GRAYLING       CLOUDY    26  24  93 CALM      29.86F FOG
HARBOR SPRINGS CLOUDY    27  27  99 CALM      29.86F FOG
HOUGHTON LAKE  CLOUDY    26  25  96 CALM      29.87F FOG
MANISTEE       FOG       29  28  96 CALM      29.88F VSB 3/4
OSCODA         CLOUDY    28  28  97 SW5       29.89F FOG     WCI  23
PELLSTON       CLOUDY    27  26  96 SE3       29.86F FOG
ROGERS CITY    CLOUDY    27  25  93 SW5       29.88F FOG     WCI  22
TRAVERSE CITY  CLOUDY    30  28  92 S5        29.87F FOG     WCI  25
$$
MIZ007>008-015-181200-
EASTERN UPPER MICHIGAN

CITY           SKY/WX    TMP DP  RH WIND       PRES   REMARKS
MACKINAC ISLAN LGT SNOW  29  28  95 S5        29.85F WCI  24
NEWBERRY       CLOUDY    25  24  96 CALM      29.82F FOG
S. S. MARIE    CLOUDY    22  19  89 E5        29.86F WCI  16
MUNISING         N/A     23  23 100 VRB5      29.83F WCI  17
$$
MIZ004>006-011>014-085-181200-
CENTRAL UPPER MICHIGAN

CITY           SKY/WX    TMP DP  RH WIND       PRES   REMARKS
MANISTIQUE     CLOUDY    29  24  81 CALM      29.84F HAZE
ESCANABA       CLOUDY    25  24  96 SW3       29.85F FOG
MENOMINEE      CLOUDY    28  26  92 SW6       29.87F FOG     WCI  22
$$
MIZ001>003-009>011-084-181200-
WESTERN UPPER MICHIGAN

CITY           SKY/WX    TMP DP  RH WIND       PRES   REMARKS
IRON MOUNTAIN  CLOUDY    26  24  92 CALM      29.80F
HOUGHTON       CLOUDY    27  23  85 SW8       29.76F WCI  19
COPPER HARBOR    N/A     29  24  82 VRB5      29.78F WCI  24
IRONWOOD       CLOUDY    25  24  96 S5        29.77F WCI  19
$$

ABBREVIATIONS USED IN REMARKS
   TC - TEMPERATURE IN CELSIUS
  WCI - WIND CHILL INDEX
   HX - HEAT INDEX
  VSB - VISIBILITY




USA.gov is the U.S. government's official web portal to all federal, state and local government web resources and services.